User: anonymous   Login
Location: Unspecified
(0.0000°N, 0.0000°E)
Time: 19:03:20
(UTC+00:00)
Language:

DMSP B5D2-4 - Orbit

View from above orbital plane
View from above orbital plane
View from above satellite
View from above satellite

Ground track
Ground track

The orbit data is extracted from the following two-line orbital elements,

1 18822U 88006A   19083.60828340  .00000012  00000-0  22687-4 0  9997
2 18822  98.5290 319.4156 0005339 295.2465  64.8162 14.27228932619371
Epoch (UTC): 24 March 2019 14:35:55
Eccentricity: 0.0005339
inclination: 98.5290°
perigee height: 797 km
apogee height: 805 km
right ascension of ascending node: 319.4156°
argument of perigee: 295.2465°
revolutions per day: 14.27228932
mean anomaly at epoch: 64.8162°
orbit number at epoch: 61937

The dashed part of the orbit path shows where the satellite is in the earth's shadow,  

DLR